IRIDIUM 33 DEB, 36012

Orbit data source: Space-Track

IRIDIUM 33 DEB, 36012 is space debris in LEO originally from a launch on Sun, 14 Sep 1997 UTC launched from the Tyuratam Missile And Space Complex (TTMTR). The debris from Iridium 33, an American commercial communications satellite, has been tracked extensively since its accidental collision with the defunct Russian satellite Cosmos 2251 in 2009. This event, occurring at high speed in low Earth orbit (LEO), generated thousands of pieces of space debris, significantly increasing the risk of further collisions. The Iridium 33 debris cloud has impacted space traffic management and orbital debris mitigation strategies, making it a subject of ongoing study in space situational awareness.

Loading next visibility...
Identifier
36012, 1997-051UT
Orbit
LEO
Country
Flag of USUS
Related business
Manufacturer
Unknown
Mission
Spacecraft
Bus & Motor
Unknown
Mass
Unknown
Launch date (UTC)
1997-09-14 (28 years ago)
Launch vehicle
Unknown
Launch site
Tyuratam Missile And Space Complex (TTMTR)
Object type
Payload
Rocket body
Debris
Shape & HBR
Unknown shape, 0.1 m
Radar Cross Section
Small (<0.1 m²)

Expand to show TLE details & history
Last TLE update: 3 days ago

TLE from 3 days ago
0 IRIDIUM 33 DEB
1 36012U 97051UT  26035.93197292  .00011825  00000-0  43799-2 0  9993
2 36012  86.4401 285.6632 0215117  88.3987 274.1828 14.20184076662536
Epoch: 2026-02-04T22:22Z
TLE epoch observation values (Epoch: 2026-02-04T22:22:02.460Z)
Latitude
-0.00003°
Longitude
175.06148°
Altitude
819.783 km
Speed
7.447 km/s
True Right ascension
19h 02m 39s
True Declination
0° 00' 00"
Sunlit
Object was in daylight at epoch
Visualization orbit readout
Latitude
Unknown
Longitude
Unknown
Altitude
Unknown
Speed
Unknown
Apparent Right ascension
Unknown
Apparent Declination
Unknown
Sunlit
N/A
Visualization observer readout
Local Sidereal Time
14:41:31
Azimuth
Unknown
Elevation
Unknown
Doppler factor
Unknown
Orbital elements
Apogee altitude
976.593 km
Perigee altitude
666.831 km
Semi-major axis
7,199.849 km
Eccentricity
0.02151
Inclination
86.4401°
RAAN
285.6632°
Arg. of periapsis
88.3987°
True anomaly
271.72023°
Mean anomaly
274.1828°
Eccentric anomaly
272.95191°
Mean motion
3.5527 °/min
Orbital period
101.33 mins
BSTAR
0.0043799
Loading maneuver chart data...
Computing Atmospheric mass density...
Loading historical data...
Loading historical data...
Loading historical data...
Loading historical data...
Loading historical data...
Loading historical data...
Loading historical data...

Documentation

Showing up to 5 results
|